Location: Toronto
(43.6672°N, 79.4170°W)
Time: 01:21:55
(UTC-04:00)

ISS - Visible Passes

Search period start: 31 July 2014 00:00
Search period end: 10 August 2014 00:00
Orbit: 411 x 419 km, 51.6° (Epoch: 31 July)

Date Brightness Start Highest point End Pass type
(mag) Time Alt. Az. Time Alt. Az. Time Alt. Az.
31 Jul -0.8 02:09:54 22° N 02:09:54 22° N 02:12:34 10° NE visible
31 Jul -0.9 03:44:32 10° NW 03:47:22 25° NNE 03:50:12 10° ENE visible
31 Jul -3.2 05:21:04 10° WNW 05:24:27 83° NNE 05:27:49 10° ESE visible
01 Aug -0.3 01:22:52 15° NE 01:22:52 15° NE 01:23:41 10° NE visible
01 Aug -0.7 02:55:45 11° NW 02:58:20 22° N 03:01:01 10° ENE visible
01 Aug -2.4 04:32:16 10° NW 04:35:35 53° NNE 04:38:53 10° ESE visible
02 Aug -0.6 02:09:02 20° N 02:09:17 20° N 02:11:53 10° NE visible
02 Aug -1.7 03:43:29 10° NW 03:46:39 37° NNE 03:49:48 10° E visible
02 Aug -2.8 05:20:13 10° WNW 05:23:23 38° SW 05:26:31 10° SSE visible
02 Aug -2.7 22:03:09 10° SSW 22:06:11 33° SE 22:07:59 19° E visible
02 Aug -1.1 23:39:41 10° W 23:41:08 22° W 23:41:08 22° W visible
03 Aug -1.2 02:56:18 21° NNW 02:57:40 28° NNE 03:00:38 10° E visible
03 Aug -3.4 04:31:15 10° WNW 04:34:36 66° SW 04:37:55 10° SE visible
03 Aug -1.9 21:14:58 10° S 21:17:29 20° SE 21:20:00 10° E visible
03 Aug -2.7 22:50:38 10° WSW 22:53:56 59° NNW 22:57:00 12° NE visible
04 Aug -0.5 00:28:26 10° WNW 00:29:58 19° NW 00:29:58 19° NW visible
04 Aug -3.1 03:46:03 68° E 03:46:03 68° E 03:49:06 10° ESE visible
04 Aug -1.6 05:20:02 10° W 05:22:05 15° SW 05:24:08 10° S visible
04 Aug -3.4 22:01:43 10° SW 22:05:02 87° SSE 22:08:24 10° ENE visible
04 Aug -1.0 23:39:13 10° WNW 23:42:05 25° NNW 23:43:47 17° NNE visible
05 Aug -3.1 21:12:58 10° SW 21:16:12 51° SE 21:19:28 10° ENE visible
05 Aug -1.4 22:50:01 10° W 22:53:03 32° NNW 22:56:06 10° NE visible
06 Aug -0.5 00:27:53 10° NW 00:29:46 19° NNW 00:29:46 19° NNW visible
06 Aug -2.0 22:00:51 10° W 22:04:03 43° NNW 22:07:16 10° NE visible
06 Aug -0.7 23:38:45 10° NW 23:41:22 21° N 23:42:37 17° NNE visible
07 Aug -2.8 21:11:47 10° WSW 21:15:05 65° NNW 21:18:25 10° NE visible
07 Aug -0.8 22:49:32 10° WNW 22:52:16 23° N 22:55:00 10° NE visible
08 Aug -0.3 00:27:00 10° NW 00:28:14 17° NNW 00:28:14 17° NNW visible
08 Aug -1.1 22:00:17 10° WNW 22:03:11 26° NNW 22:06:05 10° NE visible
08 Aug -0.9 23:38:01 10° NW 23:40:39 21° N 23:40:57 21° NNE visible
09 Aug -1.5 21:11:03 10° W 21:14:07 33° NNW 21:17:12 10° NE visible
09 Aug -0.7 22:48:56 10° NW 22:51:31 20° N 22:53:38 12° NE visible
